Weather History for Cody, WY

Change the Weather History Date:

Thursday, November 29, 2012

  Actual Average Record
Temperature  
Mean Temperature 43 °F -  
Max Temperature 51 °F 39 °F 63 °F (1932)
Min Temperature 35 °F 16 °F -7 °F (1975)
Degree Days  
Heating Degree Days 22    
Moisture  
Dew Point 25 °F    
Average Humidity 46    
Maximum Humidity 75    
Minimum Humidity 30    
Precipitation  
Precipitation 0.00 in - - ()
Sea Level Pressure  
Sea Level Pressure 29.91 in    
Wind  
Wind Speed 11 mph (SW)    
Max Wind Speed 23 mph    
Max Gust Speed 39 mph    
Visibility 10 miles    
Events      
Averages and records for this station are not official NWS values.
T = Trace of Precipitation, MM = Missing Value Source: NWS Daily Summary

Daily Weather History Graph

Daily Weather History Graph

Search for Another Location

Airport:

Trip Planner

Search our weather history database for the weather conditions in past years. The results will help you decide how hot, cold, wet, or windy it might be!

Date:

Astronomy

Nov. 29, 2012 Rise Set
Actual Time 7:30 AM MST 4:38 PM MST
Civil Twilight 6:58 AM MST 5:10 PM MST
Nautical Twilight 6:21 AM MST 5:47 PM MST
Astronomical Twilight 5:46 AM MST 6:22 PM MST
Moon 5:43 PM MST (11/29) 8:20 AM MST (11/29)
Length of Visible Light 10h 12m
Length of Day
9h 07m
Full, 99% of the Moon is Illuminated
Nov 29
Full
Dec 6
Last Quarter
Dec 13
New
Dec 19
First Quarter
Dec 28
Full

Hourly Weather History & Observations

Time (MST) Temp. Windchill Dew Point Humidity Pressure Visibility Wind Dir Wind Speed Gust Speed Precip Events Conditions
12:15 AM 42.8 °F 38.6 °F 24.8 °F 49% 29.88 in 10.0 mi SSW 6.9 mph - N/A   Clear
12:35 AM 42.8 °F 39.3 °F 21.2 °F 42% 29.88 in 10.0 mi South 5.8 mph - N/A   Clear
12:55 AM 39.2 °F 32.0 °F 23.0 °F 52% 29.88 in 10.0 mi SE 11.5 mph - N/A   Scattered Clouds
1:15 AM 39.2 °F 30.5 °F 23.0 °F 52% 29.87 in 10.0 mi SE 16.1 mph - N/A   Partly Cloudy
1:35 AM 39.2 °F 32.0 °F 24.8 °F 56% 29.86 in 10.0 mi SSE 11.5 mph - N/A   Clear
1:55 AM 39.2 °F 32.5 °F 24.8 °F 56% 29.86 in 10.0 mi South 10.4 mph - N/A   Clear
2:15 AM 44.6 °F 38.4 °F 24.8 °F 46% 29.87 in 10.0 mi SW 12.7 mph - N/A   Clear
2:35 AM 44.6 °F 38.8 °F 24.8 °F 46% 29.88 in 10.0 mi SSW 11.5 mph - N/A   Scattered Clouds
2:55 AM 48.2 °F - 26.6 °F 43% 29.89 in 10.0 mi SW 10.4 mph 16.1 mph N/A   Overcast
3:15 AM 42.8 °F 38.0 °F 24.8 °F 49% 29.89 in 10.0 mi SSW 8.1 mph - N/A   Mostly Cloudy
3:35 AM 46.4 °F 42.9 °F 26.6 °F 46% 29.89 in 10.0 mi WSW 6.9 mph - N/A   Mostly Cloudy
3:55 AM 44.6 °F 42.2 °F 26.6 °F 49% 29.88 in 10.0 mi WSW 4.6 mph - N/A   Partly Cloudy
4:15 AM 44.6 °F 43.1 °F 26.6 °F 49% 29.88 in 10.0 mi SSW 3.5 mph - N/A   Scattered Clouds
4:35 AM 46.4 °F 44.3 °F 28.4 °F 50% 29.88 in 10.0 mi NNW 4.6 mph - N/A   Mostly Cloudy
5:35 AM 42.8 °F 37.0 °F 28.4 °F 57% 29.88 in 10.0 mi SSW 10.4 mph - N/A   Partly Cloudy
5:55 AM 39.2 °F 33.6 °F 28.4 °F 65% 29.87 in 10.0 mi SSW 8.1 mph - N/A   Clear
6:15 AM 39.2 °F 35.0 °F 28.4 °F 65% 29.88 in 10.0 mi South 5.8 mph - N/A   Clear
6:55 AM 35.6 °F 29.2 °F 28.4 °F 75% 29.88 in 10.0 mi South 8.1 mph - N/A   Clear
7:15 AM 44.6 °F 36.6 °F 32.0 °F 61% 29.88 in 10.0 mi West 19.6 mph 25.3 mph N/A   Clear
7:35 AM 46.4 °F 38.7 °F 30.2 °F 53% 29.88 in 10.0 mi West 20.7 mph 26.5 mph N/A   Clear
7:55 AM 46.4 °F 40.1 °F 30.2 °F 53% 29.90 in 10.0 mi West 15.0 mph 27.6 mph N/A   Clear
8:15 AM 46.4 °F 40.1 °F 30.2 °F 53% 29.90 in 10.0 mi West 15.0 mph 24.2 mph N/A   Clear
8:35 AM 46.4 °F 41.5 °F 28.4 °F 50% 29.91 in 10.0 mi WNW 10.4 mph 17.3 mph N/A   Clear
9:15 AM 48.2 °F - 26.6 °F 43% 29.92 in 10.0 mi West 12.7 mph 20.7 mph N/A   Clear
9:35 AM 48.2 °F - 26.6 °F 43% 29.93 in 10.0 mi WSW 12.7 mph 24.2 mph N/A   Partly Cloudy
9:55 AM 50.0 °F - 24.8 °F 37% 29.92 in 10.0 mi WSW 19.6 mph 29.9 mph N/A   Partly Cloudy
10:15 AM 50.0 °F - 24.8 °F 37% 29.93 in 10.0 mi West 15.0 mph 31.1 mph N/A   Clear
10:35 AM 50.0 °F - 26.6 °F 40% 29.92 in 10.0 mi West 18.4 mph 31.1 mph N/A   Clear
10:55 AM 50.0 °F - 26.6 °F 40% 29.92 in 10.0 mi West 19.6 mph 31.1 mph N/A   Clear
11:15 AM 50.0 °F - 24.8 °F 37% 29.94 in 10.0 mi West 23.0 mph 39.1 mph N/A   Clear
11:35 AM 50.0 °F - 24.8 °F 37% 29.93 in 10.0 mi West 17.3 mph 36.8 mph N/A   Clear
11:55 AM 50.0 °F - 24.8 °F 37% 29.94 in 10.0 mi WSW 15.0 mph 35.7 mph N/A   Clear
12:15 PM 51.8 °F - 24.8 °F 35% 29.94 in 10.0 mi West 20.7 mph 31.1 mph N/A   Clear
12:35 PM 51.8 °F - 24.8 °F 35% 29.94 in 10.0 mi WSW 19.6 mph 31.1 mph N/A   Clear
1:15 PM 51.8 °F - 23.0 °F 33% 29.93 in 10.0 mi WSW 16.1 mph 28.8 mph N/A   Clear
1:35 PM 51.8 °F - 23.0 °F 33% 29.93 in 10.0 mi WSW 15.0 mph 28.8 mph N/A   Clear
2:15 PM 51.8 °F - 21.2 °F 30% 29.95 in 10.0 mi West 20.7 mph 25.3 mph N/A   Clear
2:55 PM 50.0 °F - 21.2 °F 32% 29.95 in 10.0 mi West 11.5 mph 19.6 mph N/A   Clear
3:35 PM 48.2 °F - 21.2 °F 34% 29.94 in 10.0 mi WSW 13.8 mph 20.7 mph N/A   Clear
3:55 PM 48.2 °F - 21.2 °F 34% 29.95 in 10.0 mi West 11.5 mph 23.0 mph N/A   Clear
4:15 PM 48.2 °F - 21.2 °F 34% 29.95 in 10.0 mi WSW 11.5 mph 19.6 mph N/A   Clear
4:35 PM 48.2 °F - 21.2 °F 34% 29.94 in 10.0 mi WSW 16.1 mph 21.9 mph N/A   Clear
4:55 PM 48.2 °F - 21.2 °F 34% 29.94 in 10.0 mi SW 12.7 mph - N/A   Clear
5:15 PM 48.2 °F - 23.0 °F 37% 29.96 in 10.0 mi WSW 9.2 mph - N/A   Clear
5:35 PM 44.6 °F 38.4 °F 23.0 °F 43% 29.95 in 10.0 mi SSW 12.7 mph - N/A   Clear
5:55 PM 44.6 °F 38.8 °F 21.2 °F 39% 29.95 in 10.0 mi SSW 11.5 mph - N/A   Clear
6:15 PM 42.8 °F 36.6 °F 21.2 °F 42% 29.94 in 10.0 mi SW 11.5 mph - N/A   Clear
6:35 PM 44.6 °F 43.1 °F 24.8 °F 46% 29.95 in 10.0 mi West 3.5 mph - N/A   Clear
6:55 PM 41.0 °F 37.1 °F 23.0 °F 49% 29.96 in 10.0 mi ESE 5.8 mph - N/A   Clear
7:15 PM 42.8 °F 38.6 °F 21.2 °F 42% 29.94 in 10.0 mi SSE 6.9 mph - N/A   Clear
7:35 PM 39.2 °F 33.0 °F 23.0 °F 52% 29.94 in 10.0 mi SSE 9.2 mph - N/A   Clear
7:55 PM 37.4 °F 29.8 °F 23.0 °F 56% 29.93 in 10.0 mi SSE 11.5 mph - N/A   Clear
8:15 PM 37.4 °F 30.3 °F 24.8 °F 60% 29.93 in 10.0 mi SSE 10.4 mph - N/A   Clear
8:55 PM 39.2 °F 32.5 °F 23.0 °F 52% 29.93 in 10.0 mi SE 10.4 mph - N/A   Clear
9:15 PM 42.8 °F 38.6 °F 23.0 °F 46% 29.94 in 10.0 mi SE 6.9 mph - N/A   Clear
9:35 PM 41.0 °F 35.2 °F 23.0 °F 49% 29.93 in 10.0 mi ESE 9.2 mph - N/A   Clear
9:55 PM 39.2 °F 31.2 °F 23.0 °F 52% 29.94 in 10.0 mi SE 13.8 mph - N/A   Clear
10:15 PM 39.2 °F 33.6 °F 23.0 °F 52% 29.93 in 10.0 mi SSE 8.1 mph - N/A   Clear
10:35 PM 39.2 °F 33.6 °F 24.8 °F 56% 29.92 in 10.0 mi SSE 8.1 mph - N/A   Clear
10:55 PM 39.2 °F 31.6 °F 24.8 °F 56% 29.92 in 10.0 mi South 12.7 mph - N/A   Clear
11:15 PM 37.4 °F 28.9 °F 24.8 °F 60% 29.90 in 10.0 mi South 13.8 mph - N/A   Clear
11:55 PM 39.2 °F 32.0 °F 24.8 °F 56% 29.89 in 10.0 mi South 11.5 mph - N/A   Clear